TAFOR
Diposting tanggal: 10 Juni 2019

Pukul : 06 - 18 UTC

Isi :

TAF WAGI 200500Z 2006/2018 18005KT 8000 BKN011 TEMPO 2007/2011 3000 -TSRA=